RH
74 74 74 76 77 77 75 75 79 78 78 83 87 88 88 88 89 90 90 90 90 88 86 87 85 85 84 81 82 80 82 82 76 77 72 63 60 59 56 54 56 53 49 49 47 46 46 45 44 43 40 39 37 38 38 38 38 38 38 39 40 40 41 41 41 42 42 42 42 42 42 43 43 43 43 43 44 44 45 44 42 40 40 38 36 35 33 32 32 33 34 34 34 33 33 33 33
73 73 72 73 73 73 70 71 78 77 75 82 86 85 84 84 85 86 89 90 88 85 85 86 84 82 81 80 79 77 83 84 77 75 69 61 62 63 60 56 56 53 50 49 48 47 46 44 44 43 40 39 37 37 37 38 38 37 38 38 39 39 40 41 41 41 41 42 42 42 42 43 43 43 43 44 44 45 46 47 46 44 43 42 41 39 37 36 34 33 33 33 33 32 32 33 33
70 71 70 71 69 70 68 69 77 78 78 83 85 82 81 82 80 81 85 87 86 85 86 85 84 82 80 80 78 78 82 82 76 72 66 64 64 63 61 59 57 55 52 50 49 48 45 44 44 43 40 40 38 37 37 37 37 37 37 38 38 38 39 40 41 41 41 42 42 42 43 43 43 43 44 44 44 45 46 47 48 48 47 46 45 42 40 38 38 36 35 34 34 33 32 31 31
68 68 69 68 65 65 68 69 75 79 82 84 83 80 80 81 78 79 80 81 82 84 85 85 83 81 80 80 76 75 75 76 75 70 67 69 67 62 61 60 59 56 53 50 49 48 45 43 44 43 41 39 38 37 36 37 37 37 37 37 38 38 38 39 40 40 41 41 42 42 43 43 43 43 43 43 44 44 44 45 46 47 48 48 48 47 43 40 40 40 39 37 36 35 34 33 31
65 64 64 63 60 61 65 70 73 76 82 85 83 81 80 80 77 78 77 76 78 80 83 84 83 81 80 80 76 73 71 72 73 70 70 70 68 65 61 60 59 53 51 50 49 49 45 43 43 43 41 39 38 37 36 36 36 37 37 37 37 37 38 38 39 40 40 41 41 42 42 43 42 42 42 42 42 42 43 43 43 44 45 46 48 49 48 45 42 41 41 40 39 38 36 35 34
60 59 57 56 55 56 63 69 72 75 79 82 84 82 79 78 77 77 77 74 75 77 80 82 82 81 81 80 78 74 72 72 72 71 70 71 70 67 63 62 58 52 50 50 49 48 45 44 44 43 42 40 38 37 36 36 36 36 36 36 37 37 38 38 39 39 40 40 41 41 42 42 42 42 41 41 42 42 42 42 43 43 43 43 45 46 48 48 46 43 42 41 41 40 39 37 35
58 57 55 53 52 54 62 67 69 73 75 77 83 83 79 78 78 78 78 75 74 77 79 80 80 81 82 79 77 76 74 74 73 70 69 70 69 67 65 62 58 53 50 49 48 47 44 44 44 44 43 41 39 38 37 36 36 36 36 36 36 37 38 38 39 39 39 40 41 41 41 41 42 42 42 42 42 42 43 43 43 43 43 43 43 44 45 47 48 47 45 42 42 42 41 40 38
57 56 53 52 52 56 63 66 68 72 73 73 76 77 77 78 78 78 79 77 76 77 79 79 78 80 82 79 78 77 75 76 73 68 69 69 68 68 65 59 56 53 50 49 49 46 44 44 44 44 43 42 40 39 37 37 36 36 37 37 38 38 38 38 39 39 39 40 40 40 41 41 42 42 41 42 42 43 43 44 44 45 45 45 45 46 47 48 49 51 50 48 45 43 42 42 41
55 56 54 50 52 60 65 67 70 71 72 71 71 71 71 74 76 78 80 81 80 78 79 79 78 80 82 81 80 78 77 79 76 71 71 71 67 66 62 56 53 52 50 49 49 47 43 43 44 43 43 42 40 40 38 38 38 39 39 39 39 39 39 39 39 39 39 39 40 40 40 40 41 41 41 42 43 44 44 45 45 46 47 48 49 49 50 51 52 54 56 57 55 51 47 47 47
54 56 55 49 50 60 65 68 71 72 71 68 68 68 69 71 74 76 79 81 81 81 79 78 78 79 80 83 83 82 83 81 78 77 76 73 70 67 60 55 51 50 50 48 47 45 43 43 43 43 43 43 42 41 40 40 40 41 41 40 40 39 39 39 39 39 39 39 39 39 39 39 39 39 40 42 43 46 48 49 48 48 49 50 51 52 52 53 55 58 60 62 64 62 57 54 54
54 56 54 51 52 59 65 68 70 71 70 67 64 64 66 68 70 72 75 77 79 81 78 78 81 77 77 82 85 85 84 81 79 79 78 76 78 76 68 61 56 51 49 48 47 45 44 43 42 43 43 42 42 43 42 42 42 41 42 41 40 39 39 39 39 39 39 39 39 39 38 38 38 38 40 42 44 46 50 51 52 52 52 52 54 56 56 57 60 62 63 64 66 68 64 60 59
53 55 55 53 53 57 62 65 66 67 66 64 62 59 62 64 66 69 72 74 76 78 78 78 80 78 78 80 82 84 81 81 80 76 77 78 79 79 74 67 61 55 51 48 46 44 44 43 42 41 41 42 42 43 43 42 41 41 41 42 41 40 40 40 40 40 40 40 40 40 40 39 39 39 41 43 46 50 55 57 58 60 59 61 63 64 65 66 67 67 67 66 66 68 67 65 62
52 53 54 52 51 55 58 60 62 63 63 61 58 57 59 61 63 66 68 72 74 77 78 78 76 77 80 80 79 81 82 84 83 76 75 74 75 80 76 70 67 65 61 51 45 43 42 42 41 39 39 40 41 42 41 41 40 41 41 42 43 43 43 43 43 43 44 44 43 42 41 42 42 43 47 52 58 64 69 69 69 70 71 73 75 74 76 78 78 78 78 76 72 69 69 68 66
50 50 51 49 49 52 54 57 58 59 61 59 56 55 56 57 59 61 65 69 73 76 77 77 76 77 80 80 77 77 82 86 84 77 74 72 73 80 80 75 73 73 70 59 49 46 45 43 42 40 39 39 40 40 40 40 41 42 43 44 45 46 46 46 46 46 47 47 47 48 48 50 54 59 65 68 70 74 77 77 73 73 76 77 78 79 81 82 83 83 84 85 81 76 74 73 72
50 48 48 48 47 49 50 54 55 56 59 59 58 55 53 53 54 57 61 67 71 74 75 77 78 80 80 80 78 79 85 85 82 79 76 75 75 80 80 78 78 77 75 68 60 57 54 50 48 47 46 44 43 42 42 43 44 45 46 47 48 49 51 52 55 57 59 61 62 63 65 67 69 74 76 74 73 74 77 80 76 75 76 78 79 79 81 82 83 82 83 85 83 82 79 77 77
51 48 45 46 46 47 49 52 54 55 56 57 57 56 53 52 54 57 58 60 63 67 72 75 77 79 79 79 78 81 86 82 80 82 79 77 76 77 77 77 78 79 78 75 71 70 66 61 60 59 58 55 52 50 50 49 50 52 54 55 55 57 60 65 69 72 74 75 75 74 74 75 74 75 76 74 73 73 74 78 78 77 77 79 79 80 81 83 84 84 84 84 83 83 81 80 82
52 48 40 42 45 45 47 50 52 52 52 53 55 56 55 54 56 57 57 56 57 59 64 69 71 73 74 76 76 78 80 77 77 81 79 78 76 74 74 74 74 76 79 77 76 76 73 70 69 68 66 64 63 64 62 61 62 65 67 68 67 69 72 75 77 78 78 78 79 77 76 76 75 75 76 76 75 75 76 78 77 77 79 79 79 80 81 82 84 86 86 85 85 85 83 83 84
51 45 37 40 44 43 43 45 47 48 48 50 52 53 54 54 55 55 57 59 58 57 59 61 62 65 68 69 71 72 74 75 77 78 77 76 73 71 71 71 70 72 76 75 74 74 74 75 77 76 74 72 72 75 74 74 74 73 75 75 75 76 77 78 78 79 79 80 80 79 77 76 77 77 77 77 77 78 79 80 78 79 81 81 80 81 82 83 84 86 86 85 84 85 84 84 84
42 38 38 39 41 41 40 42 44 45 46 47 49 50 51 52 51 52 56 60 59 58 58 57 57 59 59 60 61 64 67 71 73 73 72 70 67 67 68 69 70 71 73 73 72 73 74 75 77 79 80 78 76 77 78 77 76 75 77 76 76 77 77 77 78 79 79 80 80 80 80 79 80 80 79 78 79 81 81 80 81 81 82 83 83 83 85 85 85 86 87 86 86 85 84 84 86
33 33 37 38 38 39 39 40 42 42 43 44 45 47 49 50 49 50 54 57 58 59 59 57 58 56 54 55 56 59 60 61 64 64 64 63 63 65 66 68 70 71 72 72 71 72 73 73 74 77 80 80 79 78 78 75 74 75 76 75 75 74 75 75 76 77 78 81 81 81 82 82 82 81 80 80 81 82 81 80 81 82 83 84 85 85 85 85 86 88 88 88 89 89 87 85 87
30 30 34 36 35 36 37 39 41 41 42 42 43 44 47 48 49 50 52 55 57 57 55 54 54 53 53 57 59 59 60 59 60 61 61 63 65 67 68 68 68 69 70 70 69 70 71 71 72 75 77 78 79 78 76 73 72 74 73 72 72 71 72 73 73 76 78 80 82 82 82 82 84 84 83 82 83 83 82 81 81 82 84 86 86 86 85 84 86 88 87 89 91 92 92 89 88
32 32 30 31 31 32 35 37 40 43 41 40 42 44 45 47 49 49 50 52 55 53 51 49 50 53 56 60 62 61 62 63 65 65 65 66 68 71 72 70 68 68 70 69 68 67 67 67 68 70 73 74 75 73 71 70 72 73 72 70 71 70 70 71 72 75 78 79 81 83 84 84 85 85 83 82 83 84 84 84 83 85 87 87 86 85 85 84 85 86 84 86 89 91 93 91 89
38 37 33 31 29 30 33 36 40 43 41 40 40 43 44 46 49 50 49 51 51 50 48 49 51 55 58 60 62 61 62 64 64 65 65 66 68 71 73 71 69 69 70 69 68 65 64 65 64 65 68 70 70 69 68 68 70 71 70 69 69 70 71 71 73 75 77 77 79 82 83 83 83 82 81 82 83 83 83 84 84 85 86 86 84 84 85 83 82 82 82 83 85 89 93 93 91
40 41 39 36 31 29 30 33 38 40 40 39 39 42 44 46 49 49 52 53 51 50 49 49 50 53 56 57 58 57 57 58 58 61 63 65 66 69 71 71 70 69 68 68 67 65 64 61 61 64 66 67 67 66 65 66 67 68 68 68 68 70 71 71 71 73 75 76 76 78 79 80 80 80 80 81 81 81 82 83 83 83 84 84 83 81 81 80 79 80 81 83 83 85 90 91 92
38 38 41 40 35 31 31 34 34 33 37 39 40 42 44 45 46 49 53 53 51 50 49 48 49 50 52 54 56 55 54 54 54 56 59 60 62 66 69 70 69 67 67 67 65 63 62 61 63 66 65 64 63 62 62 64 66 69 69 68 68 69 70 70 70 72 73 73 74 75 76 78 80 82 81 80 81 81 81 81 81 81 82 81 79 78 77 77 77 79 82 83 83 84 85 87 88
35 35 39 41 38 35 36 37 33 31 34 37 41 43 43 44 45 49 52 49 48 50 49 49 50 50 51 52 53 53 52 51 50 52 53 55 58 62 64 65 65 64 65 65 64 63 64 65 67 66 63 62 62 61 62 65 67 68 68 67 66 66 68 69 70 71 71 70 71 72 72 74 79 80 79 79 81 79 77 77 78 77 77 76 75 76 75 75 75 78 81 82 83 84 84 85 85
34 34 38 40 39 38 39 39 34 33 35 37 43 46 44 44 45 50 49 45 46 48 49 51 52 52 52 52 51 50 50 50 50 49 49 51 55 56 57 59 60 59 60 62 63 65 67 69 69 65 64 63 62 62 63 64 65 65 66 65 63 64 66 68 69 70 70 69 69 70 68 70 73 73 72 74 76 74 71 69 70 70 73 73 74 74 73 74 74 75 77 78 81 82 83 87 87
35 35 38 40 39 39 41 41 36 35 38 39 43 45 45 44 45 49 49 46 46 46 48 52 54 54 52 51 51 49 50 49 47 47 46 48 51 52 53 53 55 56 56 60 63 66 69 69 68 66 65 64 63 63 62 61 61 63 65 64 62 63 64 65 67 69 70 68 67 66 64 65 67 66 67 69 70 69 67 64 64 66 68 68 69 70 69 70 69 70 72 74 75 77 81 84 85
37 36 37 39 39 40 43 44 40 37 38 39 41 43 42 43 44 46 49 49 49 48 49 53 55 55 53 51 50 50 50 48 46 44 44 45 47 49 50 50 53 54 54 59 64 67 68 68 67 66 66 64 64 63 61 62 62 62 63 63 61 60 59 60 61 62 65 65 63 62 60 61 62 61 64 68 70 68 64 62 62 63 63 62 64 66 66 65 65 65 67 70 70 70 75 78 79
40 39 37 38 41 43 43 45 44 41 39 39 43 45 41 41 43 43 46 49 52 52 52 54 54 54 54 52 51 51 50 49 48 46 43 43 45 47 47 48 51 52 53 57 62 65 67 68 67 67 66 64 63 62 61 63 62 59 60 62 60 58 55 54 54 54 56 56 55 55 55 55 55 55 55 58 63 62 58 57 56 56 57 58 60 61 61 62 63 63 64 67 68 66 68 71 74
41 41 40 40 43 43 41 45 46 43 40 40 45 48 43 40 42 42 43 47 50 52 53 54 53 53 55 54 53 52 50 50 50 48 45 44 45 47 46 47 50 51 53 56 58 60 63 65 66 66 65 63 63 61 60 61 59 58 59 61 61 60 57 55 55 52 48 46 45 45 46 46 46 46 44 44 47 49 48 47 46 46 47 49 51 52 53 56 59 61 61 64 65 63 63 63 68
39 39 40 41 42 41 40 44 46 44 41 39 42 46 44 40 42 43 42 45 48 49 51 53 54 54 55 56 55 53 52 50 50 50 48 47 46 47 48 50 53 53 54 56 56 56 58 61 63 64 63 63 63 61 60 60 60 60 61 61 60 59 56 53 51 47 42 42 43 42 41 41 42 42 41 40 40 39 39 40 40 38 36 37 39 40 43 47 51 55 56 58 59 58 59 58 61
35 36 38 39 40 41 42 43 43 44 42 39 40 45 45 42 43 44 43 46 48 48 49 50 54 55 55 58 58 56 54 52 53 54 53 51 50 49 49 52 55 56 57 56 56 55 56 56 59 62 62 62 62 62 62 61 61 61 60 59 58 54 49 45 43 40 40 41 42 43 41 40 43 44 43 42 40 38 36 37 37 35 33 32 33 34 36 38 42 46 48 51 52 53 55 55 56
35 35 35 34 36 39 41 42 42 44 42 40 40 43 46 44 44 47 45 48 51 50 49 49 53 56 56 59 59 57 56 54 54 55 56 54 53 51 50 53 56 58 57 55 54 54 54 54 54 56 59 62 63 63 63 62 62 61 59 58 57 53 48 44 41 40 40 41 43 43 43 43 44 45 44 43 41 39 38 37 37 36 35 34 35 36 35 36 37 40 42 43 45 48 50 51 52
32 33 34 32 34 37 38 39 41 43 41 40 39 42 47 46 47 49 48 52 56 53 52 53 54 56 57 57 57 58 58 57 55 56 57 56 56 53 51 53 56 56 55 55 54 53 54 54 54 54 55 59 64 66 66 66 65 64 62 62 60 56 52 49 47 46 44 45 46 46 45 45 46 47 46 45 43 40 39 38 37 37 37 36 37 37 36 36 36 37 38 38 39 41 44 47 50
28 28 29 30 32 35 33 35 40 41 39 39 38 40 44 45 48 51 51 55 58 57 56 56 56 56 56 55 54 57 58 56 54 57 57 56 58 57 52 52 54 54 53 53 54 53 54 55 56 55 53 55 61 66 69 71 70 68 67 66 64 61 59 56 55 55 53 51 51 50 49 51 53 55 54 50 46 42 39 37 37 37 37 37 37 37 36 35 35 36 35 36 36 37 39 43 47
25 24 24 25 29 32 32 35 40 39 38 37 36 39 41 42 48 52 53 56 58 59 59 57 56 56 57 56 54 55 57 57 56 56 54 55 59 57 54 53 53 53 52 52 52 52 54 56 57 57 55 55 57 62 67 71 72 71 70 68 69 70 69 66 64 62 60 59 59 57 57 59 61 61 57 52 49 45 41 38 36 35 36 38 37 36 35 33 33 35 34 35 35 37 39 41 42
24 22 20 24 27 30 32 35 37 36 36 37 38 41 42 42 46 51 53 55 55 57 58 57 57 58 57 56 53 53 57 61 61 57 54 56 58 56 56 56 56 54 52 52 53 53 54 55 56 57 58 58 58 59 62 66 72 74 71 70 73 76 76 73 71 69 66 65 64 63 62 63 63 62 59 55 52 48 45 43 40 36 33 35 37 36 34 31 31 33 33 33 34 37 39 40 40
22 20 21 25 28 30 33 35 36 35 36 38 40 41 43 43 46 50 53 54 54 54 56 56 57 57 57 55 53 54 59 61 59 56 55 55 55 56 57 55 55 56 55 55 56 56 56 55 56 56 57 58 59 60 59 61 66 70 72 74 77 77 76 75 74 73 70 67 65 63 62 62 63 62 60 57 53 50 47 44 40 37 33 31 32 34 34 32 31 33 33 32 34 36 36 37 38
20 20 22 25 29 31 33 34 36 38 38 40 43 44 45 45 46 50 53 54 55 55 56 56 56 57 56 54 52 55 60 60 55 54 56 56 55 56 56 53 52 54 56 58 59 57 56 56 55 55 57 59 59 60 60 60 61 64 70 74 75 75 75 76 77 75 71 67 64 61 60 60 61 62 60 58 56 52 49 44 38 34 31 27 26 29 31 31 32 32 32 32 33 34 35 35 36
22 21 21 23 28 29 30 32 36 39 40 41 45 48 48 47 47 51 54 57 58 58 58 59 59 59 57 54 54 56 60 59 56 57 60 58 56 55 52 50 50 51 55 59 60 57 56 55 54 55 57 59 59 58 58 60 62 64 67 67 66 67 69 72 74 72 67 64 63 61 59 59 61 62 61 60 58 55 52 48 40 32 28 25 23 24 25 26 27 27 28 29 31 32 35 37 36
22 22 21 22 25 27 29 32 35 40 43 42 43 47 50 50 48 51 56 60 62 61 62 62 62 61 58 56 57 57 59 60 60 63 62 58 58 58 54 50 49 50 53 58 59 56 55 54 53 55 56 57 58 57 57 59 62 64 64 62 61 61 63 64 67 68 65 64 63 60 57 59 61 62 62 61 59 57 53 49 41 32 27 25 23 23 23 23 23 23 25 27 29 31 34 35 34
22 21 21 21 22 25 29 33 35 39 43 40 39 45 51 50 48 52 56 59 62 63 64 64 62 61 60 58 58 58 60 61 59 59 59 58 58 59 56 52 50 51 53 57 58 56 55 53 52 54 56 57 58 58 57 56 57 59 59 58 59 61 63 65 68 69 66 64 62 58 57 59 60 61 60 58 55 52 48 43 37 30 26 24 23 23 22 22 22 23 24 26 29 32 32 32 33
22 21 21 22 22 23 26 29 31 34 37 38 38 42 48 49 48 51 54 57 61 63 62 63 62 62 61 60 58 58 60 59 56 57 59 60 59 57 55 54 52 54 58 59 57 57 56 54 54 55 55 57 57 56 54 53 54 56 57 59 60 62 65 68 71 69 64 61 58 55 55 57 57 56 55 53 49 47 44 39 33 27 24 24 23 22 21 21 22 23 24 26 29 30 29 31 33
22 22 21 21 22 24 24 25 27 29 32 37 38 39 43 48 50 51 54 59 63 63 59 60 63 62 62 61 59 58 59 59 58 60 61 60 60 57 54 55 55 57 62 62 60 59 58 57 57 57 56 56 56 55 54 55 56 58 59 61 62 63 66 68 69 64 58 57 55 52 50 49 48 47 45 45 42 40 40 37 33 28 25 25 24 21 19 20 21 21 23 25 27 29 28 28 32
23 22 22 22 23 25 25 25 27 27 27 32 35 37 42 49 52 53 57 60 61 61 57 59 64 64 62 61 60 59 59 60 61 61 60 60 60 57 54 57 58 59 64 65 63 60 58 59 59 59 58 57 56 56 56 57 59 60 60 61 63 65 67 67 65 59 56 56 53 49 46 43 40 38 36 36 35 33 33 34 34 32 29 26 24 20 18 19 20 22 23 25 26 28 28 28 33
24 23 23 22 23 26 29 32 31 29 31 32 32 35 41 47 51 54 57 57 56 57 56 59 65 66 64 62 60 60 60 62 62 59 58 60 62 58 56 59 58 59 63 63 60 58 58 61 62 62 61 60 59 59 59 60 63 63 62 62 65 68 69 68 64 60 59 56 49 44 42 38 35 33 32 31 31 31 30 30 32 31 28 26 23 20 18 19 21 24 24 25 26 28 29 32 38
25 24 23 23 25 28 32 35 33 30 32 33 31 33 37 42 46 48 49 50 51 52 52 58 65 66 64 62 61 61 62 63 60 57 58 62 64 61 57 58 57 58 60 59 57 57 59 63 65 65 65 64 63 63 64 65 66 65 64 65 67 69 69 67 64 61 58 51 42 37 35 33 30 29 30 30 30 30 29 29 29 28 26 25 21 18 17 19 21 25 25 25 26 30 33 37 42
24 24 24 24 28 29 30 32 31 28 28 29 30 33 37 41 43 43 45 48 48 47 50 56 61 62 63 62 62 63 62 61 57 56 58 61 62 61 59 58 57 58 58 56 57 59 61 64 65 65 66 66 66 67 70 69 66 64 64 65 66 65 64 63 61 58 50 40 33 29 28 29 29 28 29 30 31 30 29 29 29 28 27 25 21 17 17 20 22 24 25 25 27 31 35 39 45
21 22 24 26 27 27 28 29 29 28 27 27 28 32 38 43 43 46 51 51 47 46 50 55 57 59 61 61 63 64 62 60 57 55 57 59 60 61 61 60 58 59 59 56 56 60 63 65 66 65 65 68 71 72 71 68 64 63 63 65 63 59 57 58 55 49 41 32 27 25 25 27 27 28 30 31 31 30 29 29 29 28 27 25 22 17 16 21 24 24 23 24 27 31 33 37 44
21 23 24 26 25 23 24 28 28 26 26 29 31 35 42 47 48 52 55 54 52 51 52 54 58 62 63 63 65 66 64 60 56 55 57 60 61 61 63 63 62 62 62 58 59 64 66 66 69 69 68 71 75 73 70 67 64 63 63 63 61 55 53 52 48 43 36 30 27 25 25 26 27 29 32 31 31 30 29 29 28 27 27 25 23 18 16 22 26 24 22 22 24 29 30 32 37
20 21 21 22 21 18 20 26 26 24 27 36 43 45 46 50 54 56 56 56 56 54 53 57 63 66 65 64 65 64 63 60 57 58 60 62 63 63 65 66 65 64 64 62 64 67 67 68 71 74 75 76 76 74 72 69 66 65 65 63 58 51 48 47 44 41 35 31 31 29 27 28 29 30 33 32 30 30 29 28 27 26 26 23 22 19 16 22 26 24 22 20 22 26 27 27 29
19 19 18 18 18 18 20 24 25 23 26 38 52 58 56 57 59 58 57 57 55 53 56 63 67 66 65 66 66 64 62 62 62 61 61 63 63 63 66 67 68 68 66 66 68 69 70 71 74 77 78 78 78 76 73 70 69 70 69 64 56 48 44 44 42 39 35 34 35 32 29 30 30 31 32 31 29 28 26 25 24 24 22 20 20 17 16 22 27 25 22 21 22 24 25 25 25
20 19 18 17 17 19 21 23 26 27 27 37 51 61 60 58 61 63 60 58 57 57 61 65 67 68 67 68 68 67 65 64 64 62 62 64 63 63 66 68 69 69 67 68 71 72 73 74 73 74 75 76 79 80 77 74 73 72 68 61 54 49 45 44 42 38 35 35 33 31 30 31 31 32 32 29 28 26 25 24 22 21 20 20 20 16 14 20 26 25 23 22 23 24 24 25 24
19 19 19 18 18 20 20 21 25 25 29 42 53 60 61 58 61 65 63 60 62 64 65 66 67 68 67 67 67 68 66 64 64 65 65 64 63 65 68 68 68 70 70 70 73 76 76 73 71 72 73 76 80 82 80 75 71 67 61 54 51 51 49 44 38 34 32 31 31 32 32 32 32 31 30 28 26 25 25 25 23 22 21 21 21 17 14 18 24 26 23 21 24 24 24 26 26
19 19 19 19 18 19 18 20 23 21 26 44 53 58 64 63 60 62 63 64 66 68 69 68 67 67 67 66 66 66 66 66 67 67 65 64 65 69 69 69 72 74 73 72 73 74 74 72 71 72 73 77 80 78 75 71 67 61 55 51 52 53 49 40 33 29 29 30 32 32 31 31 31 30 28 28 27 25 26 25 24 23 22 21 20 17 14 16 21 25 24 22 24 25 26 27 27
19 20 19 19 18 17 16 18 20 19 25 42 54 57 61 62 58 59 63 67 68 70 70 70 69 69 70 69 68 68 68 68 67 64 64 65 68 70 70 71 75 75 72 72 72 72 73 72 72 71 72 75 74 71 68 66 62 57 54 54 55 51 42 34 29 28 29 30 31 31 30 30 29 28 28 27 27 27 26 25 24 24 23 21 19 16 14 14 18 23 24 22 23 25 27 27 27
19 20 18 17 18 18 18 18 18 19 23 36 52 61 61 59 59 61 63 65 66 68 70 71 71 72 72 70 69 68 68 68 65 64 66 67 69 71 72 74 76 73 71 72 73 72 73 72 72 70 69 69 67 66 65 62 58 56 56 55 51 42 33 29 28 29 29 29 29 29 29 28 27 27 27 27 28 28 26 25 25 24 23 19 16 14 12 11 16 22 23 22 23 25 27 27 26